GW2753 Weather Reports


time (UTC)temp
C
wind
direction
speed
KPH
gust
KPH
rain 1hr
cm
rain 24hr
cm
rain mn
cm
humidity
%
barometer
mb
20260906110050 21 0 0.0 4.8 0.00 0.00 0.00 92 1013.6
20260906104545 21 180 1.6 6.4 0.00 0.00 0.00 92 1013.4
20260906103042 21 180 0.0 4.8 0.00 0.00 0.00 92 1013.1
20260906101544 21 0 0.0 4.8 0.00 0.00 0.00 92 1013.1
20260906100043 21 0 0.0 6.4 0.00 0.00 0.00 92 1012.8
20260906094544 21 180 0.0 4.8 0.00 0.00 0.00 92 1012.7
20260906093051 21 180 0.0 4.8 0.00 0.00 0.00 92 1012.7
20260906091550 21 180 0.0 3.2 0.00 0.00 0.00 92 1012.7
20260906084551 21 0 0.0 0.0 0.00 0.00 0.00 92 1012.9
20260906083043 21 0 0.0 0.0 0.00 0.00 0.00 92 1012.9
20260906081551 21 0 0.0 3.2 0.00 0.00 0.00 92 1012.6
20260906080045 21 180 0.0 4.8 0.00 0.00 0.00 92 1012.6
20260906074550 21 180 1.6 3.2 0.00 0.00 0.00 92 1012.5
20260906073053 21 180 1.6 4.8 0.00 0.00 0.00 92 1012.5
20260906071544 21 180 1.6 4.8 0.00 0.00 0.00 92 1012.5
20260906070054 21 180 1.6 4.8 0.00 0.00 0.00 92 1012.4
20260906064538 21 180 0.0 3.2 0.00 0.00 0.00 92 1012.5
20260906063044 21 180 1.6 3.2 0.00 0.00 0.00 92 1012.8
20260906061559 21 0 0.0 1.6 0.00 0.00 0.00 92 1013.0
20260906060050 21 180 1.6 4.8 0.00 0.00 0.00 92 1013.0
20260906054549 21 180 1.6 4.8 0.00 0.00 0.00 92 1012.9
20260906053047 21 0 0.0 3.2 0.00 0.00 0.00 92 1013.0
20260906051541 21 180 0.0 3.2 0.00 0.00 0.00 92 1013.0
20260906050101 21 180 1.6 3.2 0.00 0.00 0.00 92 1013.1
20260906044546 21 180 1.6 4.8 0.00 0.00 0.00 92 1013.0
20260906043055 21 180 1.6 3.2 0.00 0.00 0.00 92 1013.1
20260906041543 21 180 1.6 4.8 0.00 0.00 0.00 92 1012.7
20260906040104 21 0 1.6 3.2 0.00 0.00 0.00 92 1012.8
20260906034547 21 180 3.2 4.8 0.00 0.00 0.00 92 1013.2
20260906033045 21 180 0.0 3.2 0.00 0.00 0.00 92 1013.2
20260906031540 21 180 0.0 3.2 0.00 0.00 0.00 91 1013.5
20260906030041 21 0 0.0 0.0 0.00 0.00 0.00 91 1013.3
20260906024544 22 0 0.0 0.0 0.00 0.00 0.00 91 1013.5
20260906023058 22 0 0.0 1.6 0.00 0.00 0.00 91 1013.5
20260906021543 22 0 0.0 0.0 0.00 0.00 0.00 91 1013.7
20260906020049 22 0 0.0 0.0 0.00 0.00 0.00 90 1013.5
20260906014555 22 0 0.0 4.8 0.00 0.00 0.00 90 1013.1
20260906013044 22 180 3.2 4.8 0.00 0.00 0.00 90 1012.9
20260906011556 22 0 0.0 4.8 0.00 0.00 0.00 90 1012.4
20260906010049 23 180 1.6 3.2 0.00 0.00 0.00 90 1012.3
20260906004542 23 180 0.0 0.0 0.00 0.00 0.00 89 1012.2
20260906003053 23 0 0.0 0.0 0.00 0.00 0.00 89 1012.2
20260906001550 23 0 0.0 0.0 0.00 0.00 0.00 89 1012.0
20260906000047 23 0 0.0 0.0 0.00 0.00 0.00 89 1012.3
20260905234553 24 0 0.0 0.0 0.00 0.00 0.00 88 1012.3
20260905233055 24 0 0.0 0.0 0.00 0.00 0.00 87 1012.5
20260905231549 25 0 0.0 3.2 0.00 0.00 0.00 87 1012.4
20260905230044 25 0 0.0 3.2 0.00 0.00 0.00 86 1012.4
20260905224604 26 0 0.0 0.0 0.00 0.00 0.00 84 1012.3
20260905223050 26 0 0.0 4.8 0.00 0.00 0.00 82 1012.2
20260905221546 28 0 0.0 0.0 0.00 0.00 0.00 77 1012.1
20260905220044 29 0 0.0 3.2 0.00 0.00 0.00 73 1012.1
20260905214541 30 0 0.0 3.2 0.00 0.00 0.00 70 1012.1
20260905213047 30 274 1.6 4.8 0.00 0.00 0.00 66 1011.8
20260905211554 30 248 1.6 12.9 0.00 0.00 0.00 62 1011.6
20260905210042 31 353 1.6 8.0 0.00 0.00 0.00 63 1011.5
20260905204549 31 256 0.0 8.0 0.00 0.00 0.00 65 1011.5
20260905203046 31 0 0.0 4.8 0.00 0.00 0.00 68 1011.5
20260905201543 30 0 0.0 6.4 0.00 0.00 0.00 67 1011.5
20260905200055 30 349 0.0 11.3 0.00 0.00 0.00 70 1011.7
20260905194547 31 0 3.2 8.0 0.00 0.00 0.00 60 1011.9
20260905193043 31 268 1.6 6.4 0.00 0.00 0.00 61 1012.1
20260905191546 30 230 3.2 8.0 0.00 0.00 0.00 62 1012.3
20260905190055 30 239 3.2 6.4 0.00 0.00 0.00 62 1012.7
20260905184600 30 204 3.2 8.0 0.00 0.00 0.00 62 1012.9
20260905183047 30 228 4.8 12.9 0.00 0.00 0.00 64 1013.2
20260905181544 29 199 1.6 6.4 0.00 0.00 0.00 66 1013.5
20260905180050 28 29 1.6 6.4 0.00 0.00 0.00 69 1013.4
20260905174547 28 262 3.2 8.0 0.00 0.00 0.00 71 1013.4
20260905173053 27 289 1.6 11.3 0.00 0.00 0.00 74 1013.6
20260905171542 26 0 1.6 12.9 0.00 0.00 0.00 79 1013.9
20260905170051 25 195 4.8 9.7 0.00 0.00 0.00 85 1014.0
20260905164547 24 79 3.2 6.4 0.00 0.00 0.00 89 1014.5
20260905163044 24 0 0.0 3.2 0.00 0.00 0.00 90 1014.6
20260905161551 23 0 0.0 4.8 0.00 0.00 0.00 90 1014.5
20260905160051 23 180 0.0 4.8 0.00 0.00 0.00 90 1014.9
20260905154546 23 0 0.0 16.1 0.00 0.00 0.00 90 1014.4
20260905153101 23 180 3.2 12.9 0.00 0.00 0.00 91 1013.4
20260905151552 22 180 1.6 8.0 0.00 0.00 0.00 92 1013.3
20260905150046 22 180 3.2 12.9 0.00 0.00 0.00 93 1013.5
20260905144547 22 180 1.6 6.4 0.00 0.00 0.00 93 1014.1
20260905143043 22 180 3.2 4.8 0.00 0.00 0.00 93 1015.3
20260905141549 22 0 0.0 4.8 0.00 0.00 0.00 93 1015.3
20260905140057 22 0 0.0 4.8 0.00 0.00 0.00 93 1015.5
20260905134544 22 0 0.0 3.2 0.00 0.00 0.00 93 1015.8
20260905133042 22 0 1.6 4.8 0.00 0.00 0.00 93 1015.6
20260905131556 22 0 0.0 6.4 0.00 0.00 0.00 92 1015.5
20260905130052 22 180 3.2 9.7 0.00 0.00 0.00 93 1015.6
20260905124552 22 180 3.2 6.4 0.00 0.00 0.00 93 1015.2
20260905123043 21 0 1.6 24.1 0.00 0.00 0.00 93 1014.5
20260905121542 21 180 1.6 3.2 0.00 0.00 0.00 93 1013.6
20260905120043 21 0 0.0 3.2 0.00 0.00 0.00 93 1013.3
20260905114546 21 180 1.6 4.8 0.00 0.00 0.00 93 1013.3
20260905113045 21 0 0.0 0.0 0.00 0.00 0.00 93 1013.4
20260905111602 21 0 0.0 0.0 0.00 0.00 0.00 93 1013.3